Deming, NM

3:36 AM MST on February 23, 2018 (GMT -0700)
Deming Municipal

Weather History for KDMN - July, 2014

Change the Weather History Date:

Thursday, July 3, 2014

  Actual Average Record
Temperature  
Mean Temperature 82 °F 81 °F  
Max Temperature 94 °F 97 °F 107 °F (1957)
Min Temperature 70 °F 64 °F 49 °F (1992)
Cooling Degree Days 16    
Growing Degree Days 30 (Base 50)    
Moisture  
Dew Point 52 °F    
Average Humidity 43    
Maximum Humidity 66    
Minimum Humidity 20    
Precipitation  
Precipitation 0.00 in 0.05 in 0.75 in (1985)
Month to date precipitation 0.01 0.15  
Year to date precipitation 0.61 3.26  
Sea Level Pressure  
Sea Level Pressure 29.90 in    
Wind  
Wind Speed 10 mph (East)    
Max Wind Speed 20 mph    
Max Gust Speed 28 mph    
Visibility 10 miles    
Events      
T = Trace of Precipitation, MM = Missing Value Source: NWS Daily Summary

Daily Weather History Graph

Daily Weather History Graph

Search for Another Location

Airport or City:

Trip Planner

Search our weather history database for the weather conditions in past years. The results will help you decide how hot, cold, wet, or windy it might be!

Date:

Astronomy

Jul. 03, 2014 Rise Set
Actual Time 6:08 AM MDT 8:21 PM MDT
Civil Twilight 5:40 AM MDT 8:49 PM MDT
Nautical Twilight 5:05 AM MDT 9:24 PM MDT
Astronomical Twilight 4:28 AM MDT 10:01 PM MDT
Moon 11:49 AM MDT (7/3) No Moon Set
Length of Visible Light 15h 09m
Length of Day
14h 12m
Waxing Crescent, 33% of the Moon is Illuminated
Jul 3
Waxing Crescent
Jul 5
First Quarter
Jul 12
Full
Jul 18
Last Quarter
Jul 26
New

Hourly Weather History & Observations

Time (MDT) Temp. Heat Index Dew Point Humidity Pressure Visibility Wind Dir Wind Speed Gust Speed Precip Events Conditions
12:53 AM 77.0 °F - 55.0 °F 47% 29.90 in 10.0 mi East 16.1 mph 23.0 mph N/A   Clear
1:53 AM 75.0 °F - 55.9 °F 51% 29.90 in 10.0 mi East 15.0 mph - N/A   Clear
2:53 AM 73.9 °F - 57.0 °F 55% 29.91 in 10.0 mi East 16.1 mph 27.6 mph N/A   Clear
3:53 AM 72.0 °F - 57.0 °F 59% 29.92 in 10.0 mi ENE 9.2 mph - N/A   Clear
4:53 AM 70.0 °F - 57.0 °F 63% 29.93 in 10.0 mi ENE 10.4 mph - N/A   Clear
5:53 AM 70.0 °F - 55.9 °F 61% 29.95 in 10.0 mi ENE 13.8 mph - N/A   Clear
6:53 AM 71.1 °F - 55.0 °F 57% 29.96 in 10.0 mi East 12.7 mph - N/A   Scattered Clouds
8:53 AM 75.9 °F - 55.0 °F 48% 30.01 in 10.0 mi ENE 11.5 mph - N/A   Clear
9:53 AM 80.1 °F 80.1 °F 55.0 °F 42% 29.97 in 10.0 mi East 8.1 mph 16.1 mph N/A   Clear
10:53 AM 84.0 °F 82.6 °F 54.0 °F 35% 29.95 in 10.0 mi ESE 8.1 mph - N/A   Clear
11:53 AM 86.0 °F 84.0 °F 53.1 °F 32% 29.95 in 10.0 mi Calm Calm - N/A   Clear
1:53 PM 91.0 °F - 51.1 °F 25% 29.88 in 10.0 mi SE 10.4 mph 17.3 mph N/A   Partly Cloudy
2:53 PM 91.0 °F - 50.0 °F 24% 29.85 in 10.0 mi Variable 5.8 mph - N/A   Partly Cloudy
3:53 PM 91.9 °F - 48.0 °F 22% 29.83 in 10.0 mi Variable 6.9 mph 18.4 mph N/A   Clear
4:53 PM 91.0 °F - 44.1 °F 20% 29.82 in 10.0 mi East 8.1 mph - N/A   Partly Cloudy
5:53 PM 91.0 °F - 46.0 °F 21% 29.81 in 10.0 mi ESE 5.8 mph 20.7 mph N/A   Clear
6:53 PM 90.0 °F - 45.0 °F 21% 29.82 in 10.0 mi ESE 15.0 mph 23.0 mph N/A   Clear
7:53 PM 88.0 °F - 43.0 °F 21% 29.83 in 10.0 mi ESE 12.7 mph - N/A   Clear
8:53 PM 84.9 °F - 50.0 °F 30% 29.86 in 10.0 mi SE 12.7 mph - N/A   Clear
9:53 PM 82.9 °F - 50.0 °F 32% 29.89 in 10.0 mi East 10.4 mph - N/A   Clear
10:53 PM 79.0 °F - 50.0 °F 36% 29.91 in 10.0 mi ENE 8.1 mph - N/A   Clear
11:53 PM 77.0 °F - 51.1 °F 40% 29.93 in 10.0 mi SSE 6.9 mph - N/A   Clear